"Data set title: Gaging station water sample data. Usage: Event based table used with water chemistry collection from 01-Oct-2016 to 30-Sep-2017",,,,,,,,,,,,
,,,,,,,,,,,,,
"Site","Date","RecNum","SiteID","Flag_SiteID","LOGGERID","PROGID","VNOTCH_INST_0_0_01","Flag_VNOTCH_INST_0_0_01","SAMPLE_INST_0_0_01","Flag_SAMPLE_INST_0_0_01","STAGE_INST_0_0_01","Flag_STAGE_INST_0_0_01"
"","yyyy-MM-dd HH:mm:ss","count","","none","none","none","none","none","count","none","ft","none"
"nominal","datetime","nominal","data","code","nominal","nominal","data","code","data","code","data","code"
"GSWS07_119",2016-10-01 03:28:00,923,107.00,"",119,36266.0,0,"",5,"",0.0370,""
"GSWS07_119",2016-10-01 16:46:00,924,107.00,"",119,36266.0,0,"",6,"",0.0410,""
"GSWS07_119",2016-10-02 06:04:00,925,107.00,"",119,36266.0,0,"",7,"",0.0390,""
"GSWS07_119",2016-10-02 19:22:00,926,107.00,"",119,36266.0,0,"",8,"",0.0410,""
"GSWS07_119",2016-10-03 08:40:00,927,107.00,"",119,36266.0,0,"",9,"",0.0400,""
"GSWS07_119",2016-10-03 21:58:00,928,107.00,"",119,36266.0,0,"",10,"",0.0510,""
"GSWS07_119",2016-10-04 11:16:00,929,107.00,"",119,36266.0,0,"",11,"",0.0550,""
"GSWS07_119",2016-10-05 00:34:00,930,107.00,"",119,36266.0,0,"",12,"",0.0790,""
"GSWS07_119",2016-10-06 09:03:15,931,107.00,"",119,36266.0,0,"",13,"",0.0770,""
"GSWS07_119",2016-10-06 09:06:15,932,107.00,"",119,36266.0,0,"",14,"",0.0770,""
"GSWS07_119",2016-10-06 16:27:45,933,107.00,"",119,36266.0,0,"",15,"",0.0600,""
"GSWS07_119",2016-10-07 05:45:45,934,107.00,"",119,36266.0,0,"",16,"",0.0540,""
"GSWS07_119",2016-10-07 19:03:45,935,107.00,"",119,36266.0,0,"",17,"",0.0810,""
"GSWS07_119",2016-10-08 08:21:45,936,107.00,"",119,36266.0,0,"",18,"",0.0620,""
"GSWS07_119",2016-10-08 21:39:45,937,107.00,"",119,36266.0,0,"",19,"",0.0530,""
"GSWS07_119",2016-10-09 10:57:45,938,107.00,"",119,36266.0,0,"",20,"",0.0500,""
"GSWS07_119",2016-10-10 00:15:45,939,107.00,"",119,36266.0,0,"",21,"",0.0500,""
"GSWS07_119",2016-10-10 13:33:45,940,107.00,"",119,36266.0,0,"",22,"",0.0750,""
"GSWS07_119",2016-10-11 02:51:45,941,107.00,"",119,36266.0,0,"",23,"",0.0600,""
"GSWS07_119",2016-10-11 16:09:45,942,107.00,"",119,36266.0,0,"",24,"",0.0530,""
"GSWS07_119",2016-10-12 05:27:45,943,107.00,"",119,36266.0,0,"",25,"",0.0510,""
"GSWS07_119",2016-10-12 18:45:45,944,107.00,"",119,36266.0,0,"",26,"",0.0470,""
"GSWS07_119",2016-10-13 08:03:45,945,107.00,"",119,36266.0,0,"",27,"",0.1000,""
"GSWS07_119",2016-10-13 21:21:45,946,107.00,"",119,36266.0,0,"",28,"",0.1330,""
"GSWS07_119",2016-10-14 10:39:45,947,107.00,"",119,36266.0,0,"",29,"",0.1540,""
"GSWS07_119",2016-10-14 23:57:45,948,107.00,"",119,36266.0,0,"",30,"",0.1880,""
"GSWS07_119",2016-10-15 13:15:45,949,107.00,"",119,36266.0,0,"",31,"",0.2050,""
"GSWS07_119",2016-10-16 02:33:45,950,107.00,"",119,36266.0,0,"",32,"",0.2250,""
"GSWS07_119",2016-10-16 15:51:45,951,107.00,"",119,36266.0,0,"",33,"",0.2080,""
"GSWS07_119",2016-10-17 05:09:45,952,107.00,"",119,36266.0,0,"",34,"",0.2420,""
"GSWS07_119",2016-10-17 18:27:45,953,107.00,"",119,36266.0,0,"",35,"",0.2490,""
"GSWS07_119",2016-10-18 01:05:45,954,107.00,"",119,36266.0,0,"",36,"",0.3630,""
"GSWS07_119",2016-10-18 14:23:45,955,107.00,"",119,36266.0,0,"",37,"",0.2910,""
"GSWS07_119",2016-10-19 03:41:45,956,107.00,"",119,36266.0,0,"",38,"",0.2340,""
"GSWS07_119",2016-10-19 12:03:45,957,107.00,"",119,36266.0,0,"",39,"",0.2290,""
"GSWS07_119",2016-10-19 16:59:45,958,107.00,"",119,36266.0,0,"",1,"",0.2130,""
"GSWS07_119",2016-10-20 06:17:45,959,107.00,"",119,36266.0,0,"",2,"",0.1830,""
"GSWS07_119",2016-10-20 19:35:45,960,107.00,"",119,36266.0,0,"",3,"",0.2570,""
"GSWS07_119",2016-10-21 08:53:45,961,107.00,"",119,36266.0,0,"",4,"",0.2710,""
"GSWS07_119",2016-10-21 22:11:45,962,107.00,"",119,36266.0,0,"",5,"",0.2800,""
"GSWS07_119",2016-10-22 11:29:45,963,107.00,"",119,36266.0,0,"",6,"",0.2420,""
"GSWS07_119",2016-10-23 00:47:45,964,107.00,"",119,36266.0,0,"",7,"",0.2380,""
"GSWS07_119",2016-10-23 14:05:45,965,107.00,"",119,36266.0,0,"",8,"",0.2110,""
"GSWS07_119",2016-10-24 03:23:45,966,107.00,"",119,36266.0,0,"",9,"",0.1890,""
"GSWS07_119",2016-10-24 16:41:45,967,107.00,"",119,36266.0,0,"",10,"",0.1790,""
"GSWS07_119",2016-10-25 05:59:45,968,107.00,"",119,36266.0,0,"",11,"",0.1670,""
"GSWS07_119",2016-10-25 19:17:45,969,107.00,"",119,36266.0,0,"",12,"",0.1580,""
"GSWS07_119",2016-10-26 08:35:45,970,107.00,"",119,36266.0,0,"",13,"",0.1660,""
"GSWS07_119",2016-10-26 21:53:45,971,107.00,"",119,36266.0,0,"",14,"",0.1690,""
"GSWS07_119",2016-10-27 11:11:45,972,107.00,"",119,36266.0,0,"",15,"",0.2170,""
"GSWS07_119",2016-10-28 00:29:45,973,107.00,"",119,36266.0,0,"",16,"",0.2380,""
"GSWS07_119",2016-10-28 13:47:45,974,107.00,"",119,36266.0,0,"",17,"",0.2150,""
"GSWS07_119",2016-10-29 03:05:45,975,107.00,"",119,36266.0,0,"",18,"",0.1980,""
"GSWS07_119",2016-10-29 16:23:45,976,107.00,"",119,36266.0,0,"",19,"",0.1890,""
"GSWS07_119",2016-10-30 05:41:45,977,107.00,"",119,36266.0,0,"",20,"",0.1820,""
"GSWS07_119",2016-10-30 18:59:45,978,107.00,"",119,36266.0,0,"",21,"",0.1790,""
"GSWS07_119",2016-10-31 08:17:45,979,107.00,"",119,36266.0,0,"",22,"",0.1940,""
"GSWS07_119",2016-10-31 21:35:45,980,107.00,"",119,36266.0,0,"",23,"",0.1870,""
"GSWS07_119",2016-11-01 10:53:45,981,107.00,"",119,36266.0,0,"",24,"",0.1800,""
"GSWS07_119",2016-11-02 00:11:45,982,107.00,"",119,36266.0,0,"",25,"",0.1710,""
"GSWS07_119",2016-11-02 13:29:45,983,107.00,"",119,36266.0,0,"",26,"",0.1650,""
"GSWS07_119",2016-11-03 02:47:45,984,107.00,"",119,36266.0,0,"",27,"",0.1560,""
"GSWS07_119",2016-11-03 16:05:45,985,107.00,"",119,36266.0,0,"",28,"",0.1530,""
"GSWS07_119",2016-11-04 05:23:45,986,107.00,"",119,36266.0,0,"",29,"",0.1490,""
"GSWS07_119",2016-11-04 18:41:45,987,107.00,"",119,36266.0,0,"",30,"",0.1450,""
"GSWS07_119",2016-11-05 07:59:45,988,107.00,"",119,36266.0,0,"",31,"",0.1430,""
"GSWS07_119",2016-11-05 21:17:45,989,107.00,"",119,36266.0,0,"",32,"",0.1430,""
"GSWS07_119",2016-11-06 10:35:45,990,107.00,"",119,36266.0,0,"",33,"",0.1430,""
"GSWS07_119",2016-11-06 23:53:45,991,107.00,"",119,36266.0,0,"",34,"",0.1390,""
"GSWS07_119",2016-11-07 13:11:45,992,107.00,"",119,36266.0,0,"",35,"",0.1350,""
"GSWS07_119",2016-11-08 02:29:45,993,107.00,"",119,36266.0,0,"",36,"",0.1310,""
"GSWS07_119",2016-11-08 15:47:45,994,107.00,"",119,36266.0,0,"",37,"",0.1270,""
"GSWS07_119",2016-11-09 05:05:45,995,107.00,"",119,36266.0,0,"",38,"",0.1250,""
"GSWS07_119",2016-11-09 18:23:45,996,107.00,"",119,36266.0,0,"",39,"",0.1230,""
"GSWS07_119",2016-11-10 07:41:45,997,107.00,"",119,36266.0,0,"",40,"",0.1210,""
"GSWS07_119",2016-11-10 21:00:00,0,107.00,"",119,14316.0,0,"",1,"",0.1180,""
"GSWS07_119",2016-11-11 10:18:00,1,107.00,"",119,14316.0,0,"",2,"",0.1160,""
"GSWS07_119",2016-11-11 23:36:00,2,107.00,"",119,14316.0,0,"",3,"",0.1140,""
"GSWS07_119",2016-11-12 12:54:00,3,107.00,"",119,14316.0,0,"",4,"",0.1140,""
"GSWS07_119",2016-11-13 02:12:00,4,107.00,"",119,14316.0,0,"",5,"",0.1120,""
"GSWS07_119",2016-11-13 15:30:00,5,107.00,"",119,14316.0,0,"",6,"",0.1100,""
"GSWS07_119",2016-11-14 04:48:00,6,107.00,"",119,14316.0,0,"",7,"",0.1090,""
"GSWS07_119",2016-11-14 18:06:00,7,107.00,"",119,14316.0,0,"",8,"",0.1840,""
"GSWS07_119",2016-11-15 07:24:00,8,107.00,"",119,14316.0,0,"",9,"",0.2530,""
"GSWS07_119",2016-11-15 20:42:00,9,107.00,"",119,14316.0,0,"",10,"",0.2310,""
"GSWS07_119",2016-11-16 10:00:00,10,107.00,"",119,14316.0,0,"",11,"",0.2380,""
"GSWS07_119",2016-11-16 23:18:00,11,107.00,"",119,14316.0,0,"",12,"",0.2290,""
"GSWS07_119",2016-11-17 12:36:00,12,107.00,"",119,14316.0,0,"",13,"",0.2210,""
"GSWS07_119",2016-11-18 01:54:00,13,107.00,"",119,14316.0,0,"",14,"",0.2130,""
"GSWS07_119",2016-11-18 15:12:00,14,107.00,"",119,14316.0,0,"",15,"",0.2050,""
"GSWS07_119",2016-11-19 04:30:00,15,107.00,"",119,14316.0,0,"",16,"",0.1980,""
"GSWS07_119",2016-11-19 17:48:00,16,107.00,"",119,14316.0,0,"",17,"",0.1890,""
"GSWS07_119",2016-11-20 07:06:00,17,107.00,"",119,14316.0,0,"",18,"",0.1920,""
"GSWS07_119",2016-11-20 20:24:00,18,107.00,"",119,14316.0,0,"",19,"",0.1870,""
"GSWS07_119",2016-11-21 09:42:00,19,107.00,"",119,14316.0,0,"",20,"",0.2080,""
"GSWS07_119",2016-11-21 23:00:00,20,107.00,"",119,14316.0,0,"",21,"",0.2130,""
"GSWS07_119",2016-11-22 12:18:00,21,107.00,"",119,14316.0,0,"",22,"",0.2040,""
"GSWS07_119",2016-11-23 01:36:00,22,107.00,"",119,14316.0,0,"",23,"",0.2210,""
"GSWS07_119",2016-11-23 14:54:00,23,107.00,"",119,14316.0,0,"",24,"",0.2310,""
"GSWS07_119",2016-11-24 04:12:00,24,107.00,"",119,14316.0,0,"",25,"",0.2320,""
"GSWS07_119",2016-11-24 17:30:00,25,107.00,"",119,14316.0,0,"",26,"",0.2360,""
"GSWS07_119",2016-11-25 06:48:00,26,107.00,"",119,14316.0,0,"",27,"",0.2480,""
"GSWS07_119",2016-11-25 20:06:00,27,107.00,"",119,14316.0,0,"",28,"",0.2690,""
"GSWS07_119",2016-11-26 09:24:00,28,107.00,"",119,14316.0,0,"",29,"",0.2650,""
"GSWS07_119",2016-11-26 22:42:00,29,107.00,"",119,14316.0,0,"",30,"",0.2640,""
"GSWS07_119",2016-11-27 12:00:00,30,107.00,"",119,14316.0,0,"",31,"",0.2520,""
"GSWS07_119",2016-11-28 01:18:00,31,107.00,"",119,14316.0,0,"",32,"",0.2930,""
"GSWS07_119",2016-11-28 14:36:00,32,107.00,"",119,14316.0,0,"",33,"",0.2990,""
"GSWS07_119",2016-11-29 03:54:00,33,107.00,"",119,14316.0,0,"",34,"",0.3040,""
"GSWS07_119",2016-11-29 17:12:00,34,107.00,"",119,14316.0,0,"",35,"",0.3150,""
"GSWS07_119",2016-11-30 06:30:00,35,107.00,"",119,14316.0,0,"",36,"",0.3120,""
"GSWS07_119",2016-11-30 19:48:00,36,107.00,"",119,14316.0,0,"",1,"",0.3070,""
"GSWS07_119",2016-12-01 09:06:00,37,107.00,"",119,14316.0,0,"",2,"",0.2930,""
"GSWS07_119",2016-12-01 22:24:00,38,107.00,"",119,14316.0,0,"",3,"",0.2840,""
"GSWS07_119",2016-12-02 11:42:00,39,107.00,"",119,14316.0,0,"",4,"",0.2690,""
"GSWS07_119",2016-12-03 01:00:00,40,107.00,"",119,14316.0,0,"",5,"",0.2610,""
"GSWS07_119",2016-12-03 14:18:00,41,107.00,"",119,14316.0,0,"",6,"",0.2550,""
"GSWS07_119",2016-12-04 03:36:00,42,107.00,"",119,14316.0,0,"",7,"",0.2520,""
"GSWS07_119",2016-12-04 16:54:00,43,107.00,"",119,14316.0,0,"",8,"",0.2760,""
"GSWS07_119",2016-12-05 06:12:00,44,107.00,"",119,14316.0,0,"",9,"",0.2730,""
"GSWS07_119",2016-12-05 19:30:00,45,107.00,"",119,14316.0,0,"",10,"",0.2670,""
"GSWS07_119",2016-12-06 08:48:00,46,107.00,"",119,14316.0,0,"",11,"",0.2630,""
"GSWS07_119",2016-12-06 22:06:00,47,107.00,"",119,14316.0,0,"",12,"",0.2480,""
"GSWS07_119",2016-12-07 11:24:00,48,107.00,"",119,14316.0,0,"",13,"",0.2340,""
"GSWS07_119",2016-12-08 00:42:00,49,107.00,"",119,14316.0,0,"",14,"",0.2440,""
"GSWS07_119",2016-12-08 14:00:00,50,107.00,"",119,14316.0,0,"",15,"",0.2400,""
"GSWS07_119",2016-12-09 03:18:00,51,107.00,"",119,14316.0,0,"",16,"",0.2670,""
"GSWS07_119",2016-12-09 16:36:00,52,107.00,"",119,14316.0,0,"",17,"",0.2920,""
"GSWS07_119",2016-12-10 05:54:00,53,107.00,"",119,14316.0,0,"",18,"",0.3510,""
"GSWS07_119",2016-12-10 19:12:00,54,107.00,"",119,14316.0,0,"",19,"",0.3630,""
"GSWS07_119",2016-12-11 08:30:00,55,107.00,"",119,14316.0,0,"",20,"",0.3600,""
"GSWS07_119",2016-12-11 21:48:00,56,107.00,"",119,14316.0,0,"",21,"",0.3340,""
"GSWS07_119",2016-12-12 11:06:00,57,107.00,"",119,14316.0,0,"",22,"",0.3090,""
"GSWS07_119",2016-12-13 00:24:00,58,107.00,"",119,14316.0,0,"",23,"",0.2840,""
"GSWS07_119",2016-12-13 13:42:00,59,107.00,"",119,14316.0,0,"",24,"",0.2780,""
"GSWS07_119",2016-12-14 03:00:00,60,107.00,"",119,14316.0,0,"",25,"",0.2570,""
"GSWS07_119",2016-12-14 16:18:00,61,107.00,"",119,14316.0,0,"",26,"",0.2480,""
"GSWS07_119",2016-12-15 05:36:00,62,107.00,"",119,14316.0,0,"",27,"",0.2770,""
"GSWS07_119",2016-12-15 18:54:00,63,107.00,"",119,14316.0,0,"",28,"",0.2570,""
"GSWS07_119",2016-12-16 08:12:00,64,107.00,"",119,14316.0,0,"",29,"",0.2420,""
"GSWS07_119",2016-12-16 21:30:00,65,107.00,"",119,14316.0,0,"",30,"",0.2500,""
"GSWS07_119",2016-12-17 10:48:00,66,107.00,"",119,14316.0,0,"",31,"",0.2440,""
"GSWS07_119",2016-12-18 00:06:00,67,107.00,"",119,14316.0,0,"",32,"",0.2340,""
"GSWS07_119",2016-12-18 13:24:00,68,107.00,"",119,14316.0,0,"",33,"",0.2260,""
"GSWS07_119",2016-12-19 02:41:45,69,107.00,"",119,14316.0,0,"",34,"",0.2200,""
"GSWS07_119",2016-12-19 15:59:45,70,107.00,"",119,14316.0,0,"",35,"",0.2140,""
"GSWS07_119",2016-12-20 05:17:45,71,107.00,"",119,14316.0,0,"",36,"",0.3400,""
"GSWS07_119",2016-12-20 11:55:45,72,107.00,"",119,14316.0,0,"",37,"",0.4220,""
"GSWS07_119",2016-12-20 18:33:45,73,107.00,"",119,14316.0,0,"",38,"",0.3890,""
"GSWS07_119",2016-12-21 01:11:45,74,107.00,"",119,14316.0,0,"",39,"",0.3820,""
"GSWS07_119",2016-12-21 07:49:45,75,107.00,"",119,14316.0,0,"",40,"",0.3790,""
"GSWS07_119",2016-12-21 13:19:00,76,107.00,"",119,14316.0,0,"",41,"",0.3700,""
"GSWS07_119",2016-12-21 14:27:45,77,107.00,"",119,14316.0,0,"",1,"",0.3680,""
"GSWS07_119",2016-12-22 03:45:45,78,107.00,"",119,14316.0,0,"",2,"",0.3510,""
"GSWS07_119",2016-12-22 17:03:45,79,107.00,"",119,14316.0,0,"",3,"",0.3180,""
"GSWS07_119",2016-12-23 06:21:45,80,107.00,"",119,14316.0,0,"",4,"",0.3050,""
"GSWS07_119",2016-12-23 19:39:45,81,107.00,"",119,14316.0,0,"",5,"",0.2940,""
"GSWS07_119",2016-12-24 08:57:45,82,107.00,"",119,14316.0,0,"",6,"",0.2820,""
"GSWS07_119",2016-12-24 22:15:45,83,107.00,"",119,14316.0,0,"",7,"",0.2600,""
"GSWS07_119",2016-12-25 11:33:45,84,107.00,"",119,14316.0,0,"",8,"",0.2440,""
"GSWS07_119",2016-12-26 00:51:45,85,107.00,"",119,14316.0,0,"",9,"",0.2330,""
"GSWS07_119",2016-12-26 14:09:45,86,107.00,"",119,14316.0,0,"",10,"",0.2420,""
"GSWS07_119",2016-12-27 03:27:45,87,107.00,"",119,14316.0,0,"",11,"",0.2360,""
"GSWS07_119",2016-12-27 16:45:45,88,107.00,"",119,14316.0,0,"",12,"",0.2370,""
"GSWS07_119",2016-12-28 06:03:45,89,107.00,"",119,14316.0,0,"",13,"",0.2270,""
"GSWS07_119",2016-12-28 19:21:45,90,107.00,"",119,14316.0,0,"",14,"",0.2210,""
"GSWS07_119",2016-12-29 08:39:45,91,107.00,"",119,14316.0,0,"",15,"",0.2170,""
"GSWS07_119",2016-12-29 21:57:45,92,107.00,"",119,14316.0,0,"",16,"",0.2210,""
"GSWS07_119",2016-12-30 11:15:45,93,107.00,"",119,14316.0,0,"",17,"",0.2160,""
"GSWS07_119",2016-12-31 00:33:45,94,107.00,"",119,14316.0,0,"",18,"",0.2100,""
"GSWS07_119",2016-12-31 13:51:45,95,107.00,"",119,14316.0,0,"",19,"",0.2060,""
"GSWS07_119",2017-01-01 03:09:45,96,107.00,"",119,14316.0,0,"",20,"",0.2040,""
"GSWS07_119",2017-01-01 16:27:45,97,107.00,"",119,14316.0,0,"",21,"",0.2040,""
"GSWS07_119",2017-01-02 05:45:45,98,107.00,"",119,14316.0,0,"",22,"",0.1990,""
"GSWS07_119",2017-01-02 19:03:45,99,107.00,"",119,14316.0,0,"",23,"",0.1940,""
"GSWS07_119",2017-01-07 18:45:45,100,107.00,"",119,14316.0,0,"",24,"",0.1630,""
"GSWS07_119",2017-01-08 08:03:45,101,107.00,"",119,14316.0,0,"",25,"",0.1810,""
"GSWS07_119",2017-01-08 21:21:45,102,107.00,"",119,14316.0,0,"",26,"",0.2600,""
"GSWS07_119",2017-01-09 10:39:45,103,107.00,"",119,14316.0,0,"",27,"",0.2500,""
"GSWS07_119",2017-01-09 23:57:45,104,107.00,"",119,14316.0,0,"",28,"",0.2260,""
"GSWS07_119",2017-01-10 13:15:45,105,107.00,"",119,14316.0,0,"",29,"",0.2440,""
"GSWS07_119",2017-01-11 02:33:45,106,107.00,"",119,14316.0,0,"",30,"",0.2280,""
"GSWS07_119",2017-01-11 14:14:30,107,107.00,"",119,14316.0,0,"",31,"",0.2260,""
"GSWS07_119",2017-01-11 15:51:45,108,107.00,"",119,14316.0,0,"",1,"",0.2450,""
"GSWS07_119",2017-01-12 05:09:45,109,107.00,"",119,14316.0,0,"",2,"",0.2400,""
"GSWS07_119",2017-01-12 18:27:45,110,107.00,"",119,14316.0,0,"",3,"",0.2330,""
"GSWS07_119",2017-01-13 07:45:45,111,107.00,"",119,14316.0,0,"",4,"",0.2260,""
"GSWS07_119",2017-01-13 21:03:45,112,107.00,"",119,14316.0,0,"",5,"",0.2200,""
"GSWS07_119",2017-01-14 10:21:45,113,107.00,"",119,14316.0,0,"",6,"",0.2140,""
"GSWS07_119",2017-01-14 23:39:45,114,107.00,"",119,14316.0,0,"",7,"",0.2100,""
"GSWS07_119",2017-01-15 12:57:45,115,107.00,"",119,14316.0,0,"",8,"",0.2050,""
"GSWS07_119",2017-01-16 02:15:45,116,107.00,"",119,14316.0,0,"",9,"",0.1990,""
"GSWS07_119",2017-01-16 15:33:45,117,107.00,"",119,14316.0,0,"",10,"",0.1960,""
"GSWS07_119",2017-01-17 04:51:45,118,107.00,"",119,14316.0,0,"",11,"",0.1940,""
"GSWS07_119",2017-01-17 18:09:45,119,107.00,"",119,14316.0,0,"",12,"",0.2030,""
"GSWS07_119",2017-01-18 07:27:45,120,107.00,"",119,14316.0,0,"",13,"",0.2880,""
"GSWS07_119",2017-01-18 20:45:45,121,107.00,"",119,14316.0,0,"",14,"",0.3520,""
"GSWS07_119",2017-01-19 10:03:45,122,107.00,"",119,14316.0,0,"",15,"",0.3620,""
"GSWS07_119",2017-01-19 16:41:45,123,107.00,"",119,14316.0,0,"",16,"",0.3660,""
"GSWS07_119",2017-01-19 23:19:45,124,107.00,"",119,14316.0,0,"",17,"",0.3660,""
"GSWS07_119",2017-01-20 12:37:45,125,107.00,"",119,14316.0,0,"",18,"",0.3580,""
"GSWS07_119",2017-01-21 01:55:45,126,107.00,"",119,14316.0,0,"",19,"",0.3360,""
"GSWS07_119",2017-01-21 15:13:45,127,107.00,"",119,14316.0,0,"",20,"",0.3110,""
"GSWS07_119",2017-01-22 04:31:45,128,107.00,"",119,14316.0,0,"",21,"",0.2940,""
"GSWS07_119",2017-01-22 17:49:45,129,107.00,"",119,14316.0,0,"",22,"",0.2820,""
"GSWS07_119",2017-01-23 07:07:45,130,107.00,"",119,14316.0,0,"",23,"",0.2730,""
"GSWS07_119",2017-01-23 20:25:45,131,107.00,"",119,14316.0,0,"",24,"",0.2590,""
"GSWS07_119",2017-01-24 09:43:45,132,107.00,"",119,14316.0,0,"",25,"",0.2390,""
"GSWS07_119",2017-01-24 23:01:45,133,107.00,"",119,14316.0,0,"",26,"",0.2260,""
"GSWS07_119",2017-01-25 12:19:45,134,107.00,"",119,14316.0,0,"",27,"",0.2370,""
"GSWS07_119",2017-01-26 01:37:45,135,107.00,"",119,14316.0,0,"",28,"",0.2280,""
"GSWS07_119",2017-01-26 14:55:45,136,107.00,"",119,14316.0,0,"",29,"",0.2180,""
"GSWS07_119",2017-01-27 04:13:45,137,107.00,"",119,14316.0,0,"",30,"",0.2080,""
"GSWS07_119",2017-01-27 17:31:45,138,107.00,"",119,14316.0,0,"",31,"",0.2010,""
"GSWS07_119",2017-01-28 06:49:45,139,107.00,"",119,14316.0,0,"",32,"",0.1970,""
"GSWS07_119",2017-01-28 20:07:45,140,107.00,"",119,14316.0,0,"",33,"",0.1950,""
"GSWS07_119",2017-01-29 09:25:45,141,107.00,"",119,14316.0,0,"",34,"",0.1950,""
"GSWS07_119",2017-01-29 22:43:45,142,107.00,"",119,14316.0,0,"",35,"",0.1930,""
"GSWS07_119",2017-01-30 12:01:45,143,107.00,"",119,14316.0,0,"",36,"",0.1940,""
"GSWS07_119",2017-01-31 01:19:45,144,107.00,"",119,14316.0,0,"",37,"",0.1970,""
"GSWS07_119",2017-01-31 14:37:45,145,107.00,"",119,14316.0,0,"",38,"",0.2100,""
"GSWS07_119",2017-02-01 03:55:45,146,107.00,"",119,14316.0,0,"",39,"",0.2220,""
"GSWS07_119",2017-02-01 12:32:00,147,107.00,"",119,14316.0,0,"",40,"",0.2260,""
"GSWS07_119",2017-02-01 17:13:45,148,107.00,"",119,14316.0,0,"",1,"",0.2260,""
"GSWS07_119",2017-02-02 06:31:45,149,107.00,"",119,14316.0,0,"",2,"",0.2250,""
"GSWS07_119",2017-02-02 19:49:45,150,107.00,"",119,14316.0,0,"",3,"",0.2250,""
"GSWS07_119",2017-02-03 09:07:45,151,107.00,"",119,14316.0,0,"",4,"",0.2240,""
"GSWS07_119",2017-02-03 22:25:45,152,107.00,"",119,14316.0,0,"",5,"",0.2430,""
"GSWS07_119",2017-02-04 09:22:00,153,107.00,"",119,14316.0,0,"",6,"",0.3630,""
"GSWS07_119",2017-02-04 16:00:00,154,107.00,"",119,14316.0,0,"",7,"",0.4050,""
"GSWS07_119",2017-02-04 22:38:00,155,107.00,"",119,14316.0,0,"",8,"",0.4700,""
"GSWS07_119",2017-02-05 03:04:00,156,107.00,"",119,14316.0,0,"",9,"",0.5190,""
"GSWS07_119",2017-02-05 07:30:00,157,107.00,"",119,14316.0,0,"",10,"",0.5770,""
"GSWS07_119",2017-02-05 11:56:00,158,107.00,"",119,14316.0,0,"",11,"",0.5690,""
"GSWS07_119",2017-02-05 16:22:00,159,107.00,"",119,14316.0,0,"",12,"",0.5630,""
"GSWS07_119",2017-02-05 20:48:00,160,107.00,"",119,14316.0,0,"",13,"",0.5590,""
"GSWS07_119",2017-02-06 01:14:00,161,107.00,"",119,14316.0,0,"",14,"",0.5310,""
"GSWS07_119",2017-02-06 07:52:00,162,107.00,"",119,14316.0,0,"",15,"",0.4800,""
"GSWS07_119",2017-02-06 14:30:00,163,107.00,"",119,14316.0,0,"",16,"",0.4490,""
"GSWS07_119",2017-02-06 21:08:00,164,107.00,"",119,14316.0,0,"",17,"",0.4210,""
"GSWS07_119",2017-02-07 03:46:00,165,107.00,"",119,14316.0,0,"",18,"",0.4000,""
"GSWS07_119",2017-02-07 10:24:00,166,107.00,"",119,14316.0,0,"",19,"",0.3850,""
"GSWS07_119",2017-02-07 17:02:00,167,107.00,"",119,14316.0,0,"",20,"",0.3700,""
"GSWS07_119",2017-02-08 06:20:00,168,107.00,"",119,14316.0,0,"",21,"",0.3530,""
"GSWS07_119",2017-02-08 12:58:00,169,107.00,"",119,14316.0,0,"",22,"",0.3740,""
"GSWS07_119",2017-02-08 19:36:00,170,107.00,"",119,14316.0,0,"",23,"",0.4330,""
"GSWS07_119",2017-02-09 02:14:00,171,107.00,"",119,14316.0,0,"",24,"",0.4930,""
"GSWS07_119",2017-02-09 06:40:00,172,107.00,"",119,14316.0,0,"",25,"",0.5420,""
"GSWS07_119",2017-02-09 11:06:00,173,107.00,"",119,14316.0,0,"",26,"",0.5980,""
"GSWS07_119",2017-02-09 14:28:00,174,107.00,"",119,14316.0,0,"",27,"",0.6440,""
"GSWS07_119",2017-02-09 17:50:00,175,107.00,"",119,14316.0,0,"",28,"",0.6670,""
"GSWS07_119",2017-02-09 21:12:00,176,107.00,"",119,14316.0,0,"",29,"",0.6810,""
"GSWS07_119",2017-02-10 00:34:00,177,107.00,"",119,14316.0,0,"",30,"",0.6660,""
"GSWS07_119",2017-02-10 03:56:00,178,107.00,"",119,14316.0,0,"",31,"",0.6490,""
"GSWS07_119",2017-02-10 07:18:00,179,107.00,"",119,14316.0,0,"",32,"",0.6210,""
"GSWS07_119",2017-02-10 11:44:00,180,107.00,"",119,14316.0,0,"",33,"",0.6110,""
"GSWS07_119",2017-02-10 16:10:00,181,107.00,"",119,14316.0,0,"",34,"",0.5900,""
"GSWS07_119",2017-02-10 20:36:00,182,107.00,"",119,14316.0,0,"",35,"",0.5350,""
"GSWS07_119",2017-02-11 03:14:00,183,107.00,"",119,14316.0,0,"",36,"",0.4910,""
"GSWS07_119",2017-02-11 09:52:00,184,107.00,"",119,14316.0,0,"",37,"",0.4580,""
"GSWS07_119",2017-02-11 16:30:00,185,107.00,"",119,14316.0,0,"",38,"",0.4280,""
"GSWS07_119",2017-02-11 23:08:00,186,107.00,"",119,14316.0,0,"",39,"",0.4010,""
"GSWS07_119",2017-02-12 05:46:00,187,107.00,"",119,14316.0,0,"",40,"",0.3820,""
"GSWS07_119",2017-02-12 12:24:00,188,107.00,"",119,14316.0,0,"",41,"",0.3740,""
"GSWS07_119",2017-02-13 01:42:00,189,107.00,"",119,14316.0,0,"",42,"",0.3320,""
"GSWS07_119",2017-02-13 15:00:00,190,107.00,"",119,14316.0,0,"",43,"",0.3030,""
"GSWS07_119",2017-02-14 04:18:00,191,107.00,"",119,14316.0,0,"",44,"",0.2850,""
"GSWS07_119",2017-02-14 17:36:00,192,107.00,"",119,14316.0,0,"",45,"",0.2820,""
"GSWS07_119",2017-02-15 06:54:00,193,107.00,"",119,14316.0,0,"",46,"",0.2750,""
"GSWS07_119",2017-02-15 20:12:00,194,107.00,"",119,14316.0,0,"",47,"",0.3300,""
"GSWS07_119",2017-02-16 02:50:00,195,107.00,"",119,14316.0,0,"",48,"",0.3930,""
"GSWS07_119",2017-02-16 09:28:00,196,107.00,"",119,14316.0,0,"",49,"",0.4360,""
"GSWS07_119",2017-02-16 16:06:00,197,107.00,"",119,14316.0,0,"",50,"",0.4530,""
"GSWS07_119",2017-02-16 22:44:00,198,107.00,"",119,14316.0,0,"",51,"",0.4610,""
"GSWS07_119",2017-02-17 05:22:00,199,107.00,"",119,14316.0,0,"",52,"",0.4490,""
"GSWS07_119",2017-02-17 12:00:00,200,107.00,"",119,14316.0,0,"",53,"",0.4330,""
"GSWS07_119",2017-02-17 18:38:00,201,107.00,"",119,14316.0,0,"",54,"",0.4170,""
"GSWS07_119",2017-02-18 01:16:00,202,107.00,"",119,14316.0,0,"",55,"",0.4010,""
"GSWS07_119",2017-02-18 07:54:00,203,107.00,"",119,14316.0,0,"",56,"",0.3880,""
"GSWS07_119",2017-02-18 14:32:00,204,107.00,"",119,14316.0,0,"",57,"",0.3800,""
"GSWS07_119",2017-02-18 21:10:00,205,107.00,"",119,14316.0,0,"",58,"",0.3680,""
"GSWS07_119",2017-02-19 10:28:00,206,107.00,"",119,14316.0,0,"",59,"",0.3420,""
"GSWS07_119",2017-02-19 23:46:00,207,107.00,"",119,14316.0,0,"",60,"",0.3300,""
"GSWS07_119",2017-02-20 13:04:00,208,107.00,"",119,14316.0,0,"",61,"",0.3300,""
"GSWS07_119",2017-02-21 02:22:00,209,107.00,"",119,14316.0,0,"",62,"",0.3320,""
"GSWS07_119",2017-02-21 15:40:00,210,107.00,"",119,14316.0,0,"",63,"",0.3490,""
"GSWS07_119",2017-02-22 04:58:00,211,107.00,"",119,14316.0,0,"",64,"",0.3290,""
"GSWS07_119",2017-02-22 11:58:30,212,107.00,"",119,14316.0,0,"",65,"",0.3230,""
"GSWS07_119",2017-02-22 18:16:00,213,107.00,"",119,14316.0,0,"",1,"",0.3140,""
"GSWS07_119",2017-02-23 07:34:00,214,107.00,"",119,14316.0,0,"",2,"",0.2900,""
"GSWS07_119",2017-02-23 20:52:00,215,107.00,"",119,14316.0,0,"",3,"",0.2810,""